Dewpoint
-7 -6 -6 -7 -7 -3 8 7 7 12 13 13 11 12 12 12 11 12 12 12 12 10 9 9 9 10 10 11 11 11 10 9 8 8 7 8 9 9 9 8 9 9 9
-6 -7 -7 -6 -4 -1 3 7 10 9 12 12 13 11 12 12 12 10 12 13 12 11 8 9 10 10 10 11 11 11 10 9 9 8 9 7 8 9 9 9 9 9 9
0 -2 -2 -4 -4 -2 -0 1 7 10 9 11 12 12 11 11 12 11 11 12 12 11 9 8 9 10 11 11 11 11 11 10 9 9 9 7 8 9 9 9 9 9 8
2 2 2 2 2 1 2 3 4 9 10 11 10 12 12 11 11 11 11 10 12 12 11 8 8 8 10 11 11 11 11 11 10 10 9 9 7 8 8 8 8 7 7
1 1 2 2 3 3 3 3 3 5 11 11 11 10 12 13 11 12 12 11 12 12 12 11 7 8 10 10 11 11 11 11 11 10 9 10 7 7 7 7 7 7 6
0 0 0 1 1 2 3 4 4 5 7 10 11 11 11 12 12 11 12 11 11 11 11 12 11 9 9 10 10 10 11 11 11 11 10 10 7 7 6 6 5 6 7
-2 -2 -2 -2 -1 -0 2 3 4 4 4 6 11 11 10 10 13 12 11 13 10 12 11 12 12 11 9 9 9 10 10 11 11 11 11 10 9 8 7 6 6 5 6
-3 -3 -2 -2 -1 -1 1 1 2 4 5 4 8 11 11 11 13 13 11 9 12 12 12 11 12 12 12 10 9 9 10 10 10 10 11 10 10 9 9 8 7 7 6
-3 -2 -2 -2 -1 -1 -0 0 1 2 4 6 6 9 10 10 11 12 12 11 11 11 12 11 12 12 12 12 10 8 9 10 9 10 10 10 10 9 9 9 9 9 7
-4 -3 -2 -2 -1 -1 -0 0 0 1 2 5 6 9 9 10 10 9 9 11 11 12 11 12 12 12 11 12 11 10 8 9 9 9 10 10 10 10 9 9 9 9 9
-5 -4 -4 -3 -2 -1 -0 0 1 0 2 3 6 7 8 10 11 10 10 10 6 10 12 12 11 11 12 11 11 11 10 8 9 8 9 9 9 9 9 9 9 9 10
-5 -4 -4 -2 -1 -1 -0 1 1 1 1 2 4 6 9 10 10 10 11 11 11 8 11 11 12 11 12 11 11 11 10 10 8 8 8 9 8 9 9 9 10 10 10
-6 -5 -4 -3 -1 0 0 1 1 1 1 2 3 5 8 9 9 10 10 10 10 9 7 12 12 11 11 11 11 11 10 10 9 8 8 8 8 9 9 9 9 10 10
-6 -6 -5 -4 -2 -1 1 2 2 2 2 2 4 3 6 9 9 9 8 8 9 8 5 11 11 11 11 11 11 10 10 10 9 7 7 7 8 8 9 9 9 9 9
-7 -7 -6 -5 -2 -1 1 2 2 2 2 3 4 5 6 6 6 7 9 8 7 7 8 7 11 12 11 11 11 11 11 10 9 7 8 9 9 8 8 8 8 8 9
-7 -7 -7 -5 -4 -2 -0 1 2 3 4 4 5 7 8 8 8 8 8 9 8 9 8 8 11 10 11 11 11 12 11 11 10 9 8 9 9 10 9 9 9 9 9
-7 -7 -7 -6 -5 -4 -3 -1 1 3 4 5 6 7 8 8 8 10 9 9 9 8 9 9 10 11 12 12 12 12 11 11 11 9 9 8 9 10 10 10 9 9 9
-6 -6 -7 -7 -7 -6 -6 -3 -3 1 2 5 5 6 7 7 9 9 9 9 10 10 9 9 10 10 10 11 11 12 11 11 11 9 9 9 9 9 10 10 10 10 9
-6 -5 -5 -6 -7 -8 -7 -5 -6 -2 0 1 2 3 5 6 7 7 7 8 9 9 10 9 9 9 10 8 12 12 12 12 12 12 11 10 9 9 10 10 10 10 10
-23 -18 -7 -4 -5 -7 -7 -8 -6 -4 -4 -2 1 1 1 3 4 5 6 6 6 7 8 9 9 9 8 8 8 8 11 11 11 11 11 9 9 9 10 11 10 10 9
-26 -21 -23 -27 -19 -9 -6 -5 -6 -4 -3 -3 -2 -2 -2 -2 -1 0 2 4 5 6 6 8 9 8 8 8 6 6 7 10 10 10 11 10 10 10 10 9 9 8 8
-27 -28 -26 -31 -32 -22 -18 -23 -13 -8 -6 -5 -4 -3 -3 -2 -3 -2 -2 -1 1 2 2 3 2 3 2 5 6 6 4 6 7 9 9 8 9 9 9 9 9 9 9
-13 -19 -21 -30 -34 -35 -20 -25 -35 -36 -34 -30 -24 -13 -6 -4 -3 -4 -3 -1 -2 -3 -3 -3 -2 -0 -0 -0 1 5 4 4 3 3 5 6 5 6 6 7 9 9 9
-11 -12 -18 -17 -32 -35 -30 -17 -24 -35 -36 -35 -35 -35 -35 -32 -24 -16 -9 -4 -3 -4 -5 -5 -4 -3 -2 -1 0 0 1 -0 1 1 2 3 2 2 3 3 3 6 6
-10 -11 -13 -28 -28 -35 -36 -33 -18 -21 -31 -34 -35 -35 -36 -38 -37 -36 -33 -28 -25 -21 -14 -7 -6 -4 -3 -3 -1 -1 -0 -0 -1 -1 -0 0 -0 -0 1 1 0 1 2
-10 -10 -11 -14 -24 -32 -37 -38 -33 -23 -26 -28 -33 -35 -36 -36 -37 -38 -38 -37 -35 -29 -29 -29 -26 -24 -24 -19 -15 -10 -6 -4 -4 -4 -3 -3 -3 -2 -1 -1 -1 -2 0
Wind_Speed
29 29 28 30 29 25 21 24 28 30 30 30 33 31 29 25 26 25 25 25 28 25 24 24 23 23 26 27 27 24 24 25 23 21 19 20 21 22 22 21 20 18 19
29 29 29 29 28 27 25 22 24 29 33 32 32 36 37 30 28 31 25 26 25 25 27 26 25 25 27 28 27 27 26 27 27 25 23 22 23 24 23 22 21 19 17
26 28 28 28 28 28 30 29 27 29 31 33 35 32 38 34 31 31 31 29 26 26 27 28 27 26 28 30 30 30 29 30 28 27 25 24 27 25 25 24 23 21 19
24 26 26 24 24 27 26 26 25 26 30 31 35 38 35 38 35 32 34 32 28 27 25 31 29 28 29 30 31 31 31 30 30 30 29 30 30 28 26 25 24 23 22
24 24 24 25 24 24 25 25 27 27 26 29 33 37 41 36 39 33 39 36 34 29 27 25 31 30 30 30 31 32 32 32 31 31 31 28 29 28 27 25 24 23 22
23 23 26 24 24 25 24 23 26 27 29 29 31 34 37 43 38 39 33 37 37 35 30 27 24 30 31 31 31 32 33 33 32 32 33 30 31 30 28 27 25 24 24
26 27 29 30 29 24 25 24 24 27 33 33 29 36 40 41 44 42 40 39 37 37 36 30 29 28 32 33 32 32 34 34 33 33 33 34 33 31 29 28 26 25 24
28 29 28 25 25 28 29 27 25 27 31 30 36 30 29 35 43 44 45 46 28 36 37 37 30 30 28 31 36 35 34 34 33 34 33 36 34 32 29 29 28 26 25
27 26 26 25 26 26 28 29 25 29 34 29 33 34 18 25 23 32 47 52 38 39 37 40 38 32 29 34 29 33 36 36 35 35 34 36 35 33 32 30 29 27 27
24 25 24 25 25 27 30 28 28 26 33 30 33 37 45 20 23 18 27 29 34 34 42 38 39 38 33 32 30 30 33 38 37 36 36 35 35 35 34 32 31 29 28
25 26 26 26 25 27 29 30 29 32 30 39 29 35 36 43 26 19 21 36 46 49 43 45 42 41 38 37 32 31 30 33 38 37 37 36 36 36 35 33 32 31 30
32 30 29 27 26 27 27 29 31 32 32 34 42 37 36 35 35 41 22 23 35 43 50 46 46 41 40 40 37 32 35 33 35 38 37 37 35 36 36 34 33 32 32
32 35 32 30 27 25 26 28 31 33 31 31 37 44 34 36 30 29 36 36 34 33 29 48 45 47 43 43 41 35 34 37 36 37 37 37 36 35 35 35 33 33 32
33 33 31 28 26 24 24 24 25 28 28 28 32 36 42 34 35 34 32 31 28 40 53 35 43 47 48 44 42 40 39 40 38 36 36 36 36 35 35 35 35 34 34
29 31 29 26 22 21 20 19 19 20 22 23 30 34 36 39 40 37 30 33 34 33 44 51 36 47 47 48 46 43 43 42 41 37 36 35 35 34 35 35 34 34 35
27 29 28 24 21 16 11 8 12 21 21 25 27 22 28 36 33 34 37 37 37 36 32 38 42 37 42 44 48 44 43 43 41 40 39 37 36 36 36 36 36 35 34
29 29 29 26 23 20 13 7 4 11 17 8 9 15 21 19 24 18 22 31 36 39 36 42 31 34 29 37 40 46 44 44 43 41 40 40 38 36 36 35 35 35 35
31 31 31 30 29 27 25 19 19 13 7 7 6 6 10 13 16 20 19 16 17 30 28 34 29 36 31 30 37 42 47 44 42 38 41 40 40 38 36 35 35 36 36
29 32 34 35 34 35 35 31 29 25 19 18 14 13 8 5 10 14 20 18 22 26 19 33 28 31 30 23 23 39 39 38 36 37 30 36 40 38 38 38 37 37 38
31 34 31 32 35 36 35 37 39 39 37 34 25 17 14 9 8 10 12 18 27 27 26 25 19 18 20 22 24 3 32 34 32 32 30 29 30 36 38 37 37 38 39
29 31 34 33 33 35 37 36 38 39 39 40 38 37 37 37 30 18 6 9 7 13 17 20 20 13 8 15 31 19 13 24 25 28 28 24 26 30 33 35 36 37 37
29 31 34 35 32 36 36 35 34 34 35 37 36 33 31 33 33 33 33 25 13 10 13 14 16 14 10 11 8 13 3 13 11 20 20 18 22 26 27 29 32 35 35
25 30 33 34 34 30 32 36 33 35 36 37 36 32 28 27 27 30 29 28 33 35 31 26 26 25 18 17 9 9 5 2 3 1 4 13 11 15 18 21 32 33 35
23 26 29 30 34 34 28 30 30 34 35 36 36 37 35 32 28 25 25 25 26 27 29 29 29 27 22 16 14 13 11 9 7 6 5 2 6 6 9 9 13 21 20
18 22 25 32 32 34 32 28 26 29 32 34 35 35 35 33 31 27 25 28 26 27 24 22 22 21 18 14 12 8 10 8 7 8 9 6 7 8 5 9 10 9 12
17 17 20 26 30 31 32 31 29 27 28 30 32 32 33 31 29 29 28 27 26 26 23 20 20 20 19 18 17 15 12 10 10 6 12 10 9 11 4 6 5 12 9
Wind_Direction
283 278 273 271 273 268 270 273 263 250 245 244 237 227 232 238 248 245 240 246 250 249 230 227 231 227 219 216 217 218 221 215 213 215 211 227 221 214 211 210 210 208 213
287 282 278 271 267 266 269 262 263 264 254 246 241 235 227 227 241 241 238 253 245 252 237 230 233 227 222 220 218 218 219 217 216 216 217 221 223 215 212 211 209 211 216
293 290 283 276 271 266 259 261 248 259 256 252 245 240 238 228 229 244 242 235 247 252 244 233 228 229 225 222 219 220 218 220 220 219 218 214 222 218 215 213 217 223 228
296 293 291 286 278 266 264 261 258 251 258 252 249 244 239 236 228 230 244 238 238 245 248 237 232 228 225 222 220 222 221 221 224 222 224 211 215 216 217 220 224 228 231
297 294 290 287 285 279 269 264 260 259 247 251 249 247 243 237 234 230 238 239 229 233 241 243 234 230 224 223 223 223 223 223 225 223 216 219 213 216 219 222 228 231 231
298 287 278 278 281 278 274 268 261 253 255 242 248 246 246 241 235 231 240 240 237 224 227 234 235 230 226 225 226 225 224 225 224 223 219 213 213 216 220 223 226 231 230
305 297 293 287 279 281 277 270 266 262 257 250 248 247 247 248 246 239 225 239 228 231 223 225 231 230 228 225 225 225 224 224 223 222 223 217 216 216 219 222 225 229 229
304 300 294 294 291 281 278 274 252 257 257 249 243 244 245 249 246 237 230 230 212 229 225 221 229 228 220 229 225 222 223 223 223 223 222 219 219 218 221 224 227 230 229
316 310 307 298 291 283 281 281 271 251 254 247 241 234 231 235 237 240 238 228 225 226 226 230 220 228 216 228 234 232 224 221 222 222 222 219 221 222 223 226 228 231 230
320 315 308 302 294 287 278 275 276 266 254 252 246 238 231 238 227 234 229 228 222 229 228 226 223 217 220 218 230 236 232 222 221 222 221 221 223 224 225 227 229 231 231
331 321 317 306 293 288 278 273 270 265 254 248 247 249 241 238 224 227 222 221 219 229 232 227 223 219 216 217 219 233 236 230 224 222 222 222 223 224 226 228 230 232 232
335 331 326 318 306 295 284 277 267 266 260 250 242 240 241 225 232 229 228 215 216 225 233 230 223 219 217 219 214 221 233 235 229 224 223 224 225 225 225 228 229 232 233
337 335 330 323 312 298 289 280 276 259 261 249 247 242 245 240 234 230 228 233 227 227 250 237 228 220 220 219 219 213 227 232 234 224 224 226 227 228 227 229 230 231 233
343 339 334 329 317 302 292 286 286 268 252 250 246 246 245 244 234 237 232 233 237 244 233 255 229 228 223 218 219 218 222 228 230 224 223 225 227 229 231 232 233 234 234
348 348 344 339 331 314 302 288 275 275 259 256 250 248 248 243 243 237 237 228 227 226 230 241 236 228 228 226 222 223 220 226 228 222 225 227 228 230 232 235 236 236 237
3 4 0 358 356 342 317 293 249 252 261 251 260 264 245 243 247 241 243 243 236 232 237 226 226 227 227 226 222 218 223 226 229 226 226 228 231 232 233 235 238 240 240
14 19 19 19 19 16 12 36 91 229 262 257 250 247 238 225 233 234 245 249 240 239 242 238 240 230 227 225 222 219 221 224 231 230 226 227 231 234 235 236 239 242 244
31 30 33 37 39 40 40 49 59 86 109 280 286 267 228 240 242 236 239 233 243 249 247 245 241 237 244 225 231 222 222 224 230 232 230 228 229 232 234 237 240 242 244
40 38 40 41 45 47 53 55 55 62 70 70 75 54 30 296 275 259 264 265 252 250 261 255 255 239 243 266 232 221 219 219 224 225 229 230 229 231 234 236 240 243 245
42 41 39 44 41 45 52 59 62 66 66 66 60 61 53 29 338 305 285 280 266 267 250 257 235 238 238 238 262 251 199 205 203 210 211 218 220 225 227 231 234 236 239
42 41 39 42 50 43 41 41 58 64 63 63 64 63 67 60 56 48 347 269 273 259 240 231 224 217 214 211 234 273 171 182 179 186 196 209 216 218 219 224 231 236 240
40 44 43 41 40 48 38 49 47 50 62 65 65 65 65 66 61 57 62 67 81 90 95 136 122 125 118 137 181 262 197 188 179 182 185 180 208 220 225 225 231 236 240
30 38 41 42 42 44 47 41 49 55 54 55 58 59 59 60 60 60 59 62 64 64 71 76 85 90 81 73 84 204 288 335 65 222 207 192 206 207 210 225 231 230 235
30 34 37 38 42 42 43 49 38 49 51 53 53 52 52 50 53 57 60 61 59 60 55 55 65 72 68 67 70 73 81 80 82 48 37 173 239 275 249 239 251 232 238
31 29 35 38 41 42 42 46 46 42 47 46 47 47 48 49 47 49 53 56 57 59 54 54 54 56 59 50 57 70 77 67 50 42 30 32 351 335 295 278 283 261 247
31 29 29 30 36 38 40 43 45 46 47 44 43 43 42 41 40 42 46 50 51 48 45 50 55 56 58 55 53 56 46 49 46 21 13 15 352 355 343 294 295 312 304
Height
1485 1484 1483 1482 1482 1482 1482 1481 1481 1481 1481 1481 1483 1485 1487 1489 1489 1490 1492 1493 1493 1495 1497 1498 1501 1503 1505 1508 1512 1515 1518 1521 1524 1526 1529 1534 1537 1539 1542 1545 1547 1549 1551
1478 1477 1475 1475 1474 1475 1475 1476 1477 1475 1475 1476 1476 1477 1479 1481 1484 1486 1488 1487 1489 1489 1492 1494 1496 1498 1500 1503 1508 1511 1514 1517 1520 1523 1526 1530 1534 1537 1539 1542 1545 1547 1549
1472 1470 1468 1466 1466 1466 1465 1466 1467 1469 1468 1468 1469 1471 1472 1475 1476 1479 1481 1483 1484 1485 1487 1489 1491 1494 1496 1499 1503 1507 1510 1513 1516 1518 1521 1525 1531 1534 1537 1539 1542 1544 1546
1469 1464 1461 1460 1459 1457 1458 1459 1460 1461 1461 1461 1461 1463 1465 1466 1470 1472 1473 1478 1480 1480 1482 1484 1486 1488 1491 1494 1497 1501 1505 1508 1512 1515 1518 1521 1526 1530 1533 1536 1539 1541 1543
1463 1460 1456 1454 1452 1451 1450 1450 1451 1453 1452 1454 1455 1455 1457 1459 1462 1467 1467 1469 1473 1476 1475 1477 1480 1483 1486 1489 1492 1496 1500 1503 1507 1510 1514 1518 1522 1526 1529 1531 1534 1537 1539
1456 1452 1447 1445 1444 1443 1443 1444 1443 1445 1445 1446 1449 1449 1448 1451 1453 1458 1462 1461 1466 1469 1472 1471 1474 1477 1479 1482 1486 1489 1493 1498 1501 1505 1509 1513 1517 1521 1524 1527 1529 1532 1535
1448 1443 1439 1437 1437 1435 1436 1435 1437 1436 1435 1437 1440 1439 1440 1443 1444 1447 1453 1452 1455 1461 1466 1467 1467 1470 1472 1476 1480 1483 1487 1491 1495 1499 1504 1508 1511 1515 1519 1521 1524 1527 1530
1442 1437 1435 1432 1431 1428 1427 1426 1426 1427 1428 1431 1431 1435 1433 1434 1434 1436 1442 1442 1428 1452 1457 1462 1462 1464 1467 1468 1471 1476 1481 1485 1489 1493 1498 1502 1506 1510 1513 1516 1519 1522 1524
1437 1434 1431 1428 1425 1423 1420 1419 1420 1420 1419 1420 1424 1425 1425 1420 1427 1428 1429 1433 1437 1446 1451 1454 1458 1459 1461 1461 1465 1469 1473 1478 1482 1487 1491 1496 1500 1504 1508 1511 1514 1517 1519
1434 1431 1427 1423 1419 1416 1414 1412 1412 1413 1414 1410 1414 1414 1415 1417 1418 1420 1419 1408 1428 1438 1445 1446 1450 1454 1456 1457 1458 1462 1467 1471 1476 1480 1484 1489 1493 1498 1501 1505 1508 1511 1514
1430 1424 1420 1415 1411 1408 1406 1405 1404 1404 1406 1406 1406 1408 1407 1410 1413 1412 1412 1412 1420 1427 1436 1439 1442 1445 1449 1452 1453 1453 1459 1465 1469 1473 1477 1482 1486 1491 1494 1498 1501 1504 1507
1425 1419 1413 1408 1404 1400 1398 1397 1396 1396 1396 1396 1398 1398 1400 1400 1402 1407 1410 1411 1413 1419 1425 1430 1434 1437 1441 1444 1447 1448 1451 1458 1462 1466 1470 1475 1479 1483 1487 1491 1494 1498 1501
1423 1416 1409 1403 1398 1394 1391 1389 1387 1386 1387 1388 1390 1390 1392 1393 1397 1398 1403 1407 1408 1411 1415 1420 1425 1428 1431 1435 1438 1442 1444 1449 1455 1459 1463 1468 1472 1476 1481 1484 1487 1490 1494
1424 1415 1407 1400 1394 1389 1385 1382 1379 1378 1379 1381 1381 1383 1384 1385 1389 1392 1397 1402 1404 1404 1405 1392 1413 1417 1420 1425 1429 1432 1436 1441 1447 1451 1456 1460 1464 1469 1473 1477 1480 1483 1486
1426 1416 1407 1399 1390 1384 1379 1376 1374 1374 1374 1376 1376 1375 1376 1378 1381 1385 1389 1393 1397 1398 1396 1398 1409 1409 1411 1414 1419 1423 1427 1431 1438 1443 1448 1452 1457 1461 1465 1469 1473 1476 1479
1426 1418 1408 1399 1389 1382 1375 1372 1371 1370 1371 1368 1368 1367 1368 1372 1373 1378 1380 1384 1387 1389 1390 1396 1400 1402 1401 1403 1409 1414 1418 1422 1428 1435 1439 1444 1449 1453 1457 1461 1465 1469 1472
1428 1419 1410 1400 1391 1383 1378 1371 1367 1367 1368 1365 1365 1364 1365 1363 1369 1369 1372 1376 1380 1384 1386 1390 1392 1395 1394 1395 1401 1407 1410 1414 1419 1425 1430 1434 1439 1445 1449 1453 1456 1460 1464
1433 1424 1415 1404 1395 1390 1383 1374 1369 1365 1366 1361 1363 1360 1359 1361 1365 1366 1368 1369 1371 1376 1378 1381 1382 1384 1382 1385 1393 1398 1401 1405 1410 1415 1421 1426 1431 1436 1441 1445 1449 1453 1456
1436 1429 1421 1412 1405 1397 1389 1381 1374 1367 1365 1363 1362 1361 1358 1363 1364 1364 1366 1367 1368 1369 1372 1375 1377 1379 1376 1380 1378 1387 1395 1399 1405 1405 1412 1418 1423 1428 1433 1437 1441 1444 1448
1440 1433 1427 1420 1414 1406 1398 1390 1383 1376 1373 1365 1358 1362 1365 1364 1363 1364 1365 1365 1365 1367 1369 1371 1371 1375 1377 1377 1385 1361 1377 1388 1391 1396 1403 1409 1414 1419 1423 1428 1431 1433 1436
1445 1439 1433 1426 1417 1412 1405 1397 1387 1380 1375 1371 1372 1373 1370 1370 1369 1366 1363 1362 1363 1364 1366 1366 1364 1367 1369 1374 1382 1374 1373 1379 1383 1389 1395 1400 1405 1410 1414 1418 1420 1424 1427
1450 1443 1437 1431 1424 1417 1415 1409 1403 1396 1389 1384 1382 1382 1381 1378 1378 1377 1373 1366 1363 1364 1363 1361 1365 1361 1366 1370 1378 1379 1374 1378 1380 1384 1389 1394 1399 1404 1408 1410 1412 1415 1419
1456 1448 1443 1437 1431 1427 1421 1417 1412 1405 1401 1397 1393 1391 1388 1385 1384 1381 1381 1376 1372 1372 1372 1373 1366 1361 1371 1369 1372 1371 1375 1380 1378 1381 1385 1388 1394 1397 1399 1402 1404 1406 1409
1461 1455 1450 1445 1439 1434 1429 1424 1420 1415 1411 1407 1403 1398 1396 1394 1391 1389 1386 1382 1381 1383 1384 1378 1372 1372 1373 1374 1374 1376 1378 1383 1384 1383 1385 1388 1391 1396 1396 1395 1399 1398 1400
1467 1462 1456 1451 1445 1441 1437 1432 1428 1424 1419 1416 1412 1408 1405 1402 1399 1397 1393 1389 1389 1385 1385 1384 1380 1377 1377 1382 1381 1382 1380 1382 1386 1385 1388 1390 1393 1396 1393 1394 1399 1397 1394
1471 1467 1463 1458 1453 1448 1444 1439 1434 1431 1427 1423 1420 1416 1413 1409 1407 1403 1399 1398 1397 1394 1394 1392 1385 1385 1383 1384 1384 1383 1386 1387 1390 1387 1388 1391 1394 1394 1393 1394 1395 1397 1389